Regional Weather Roundup
Issued by NWS

Home | Current Version | Previous Version | Text Only | Print | Product List | Glossary Off
Versions: 1 2 3 4 5 6 7 8 9 10 11 12 13 14 15 16 17 18 19 20 21 22 23 24 25 26 27

000
ASUS45 KBOU 012207
RWRCO

WEATHER ROUNDUP FOR COLORADO
NATIONAL WEATHER SERVICE DENVER/BOULDER CO
300 PM MST THU DEC 01 2016

NOTE: "FAIR" INDICATES FEW OR NO CLOUDS BELOW 12000 FEET WITH NO
SIGNIFICANT WEATHER AND/OR OBSTRUCTIONS TO VISIBILITY.

COZ001>005-013-030-031-012300-
...NORTHWEST COLORADO...

CITY           SKY/WX    TMP DP  RH WIND       PRES   REMARKS
CRAIG          LGT SNOW  28  21  75 CALM      29.98R
HAYDEN         PTSUNNY   27  16  63 NW6       29.96S WCI  20
MEEKER         CLOUDY    27  22  81 SE3       29.96S
MOUNT WERNER   NOT AVBL
STEAMBOAT SPGS CLOUDY    26  15  62 CALM      29.95R
WALDEN           N/A     23  12  63 S10       29.90S WCI  12
$$

COZ006>008-011-012300-
...WEST CENTRAL VALLEYS...

CITY           SKY/WX    TMP DP  RH WIND       PRES   REMARKS
GRAND JUNCTION CLOUDY    37  18  46 NW8       29.99S
MONTROSE       CLOUDY    35  13  40 VRB3      29.97F
EAGLE          PTSUNNY   30  14  51 SW3       29.95F
RIFLE          CLOUDY    34  15  46 SW9       29.98S WCI  27
DELTA          NOT AVBL
NUCLA          NOT AVBL
$$

COZ017>023-064>068-012300-
...SOUTHWEST COLORADO...

CITY           SKY/WX    TMP DP  RH WIND       PRES   REMARKS
DURANGO        FAIR      34  11  38 CALM      29.93F
CORTEZ         FAIR      37  12  35 CALM      29.95F
PAGOSA SPRINGS FAIR      31  12  45 CALM      29.93S
TELLURIDE      CLOUDY    26  13  59 W10       29.92R WCI  16
WOLF CREEK PAS FAIR      14  12  92 SW10      29.92S WCI   1
$$

COZ009-010-012-014-032>034-037-058>063-012300-
...CENTRAL COLORADO...

CITY           SKY/WX    TMP DP  RH WIND       PRES   REMARKS
ASPEN          PTSUNNY   28  12  51 N9        29.90R WCI  19
BUENA VISTA    FAIR      35   4  27 SE6       29.84S WCI  30
COPPER MTN     NOT AVBL
BERTHOUD PASS    N/A      7  -6  56 NW8       29.82S WCI  -6
COTTONWOOD PAS FAIR      32   5  32 SW13G18   29.85S WCI  22
GUNNISON       FAIR      26  10  50 VRB3      29.93F
KREMMLING      PTSUNNY   34  18  51 NE3       29.93S
LEADVILLE      FAIR      22   7  52 NW6       29.84S WCI  14
MONARCH PASS     N/A     12  10  92 W20G25    29.96R WCI  -6
SALIDA         FAIR      38   8  28 SW14G23   29.93S
SUNLIGHT       LGT SNOW N/A N/A N/A SW9       29.92R VSB 1
WILKERSON PASS FAIR      25   5  42 SW5       29.87R WCI  19
$$

COZ069>075-012300-
...SAN LUIS VALLEY/SANGRE DE CRISTO MOUNTAINS...

CITY           SKY/WX    TMP DP  RH WIND       PRES   REMARKS
ALAMOSA        FAIR      31   9  39 CALM      29.91F
LA VETA PASS   FAIR      23   7  50 NE14G22   29.87S WCI  11
SAGUACHE       FAIR      30   9  40 SE7       29.91F WCI  23
$$

COZ035-036-038>040-012300-
...NORTHERN COLORADO FRONT RANGE...

CITY           SKY/WX    TMP DP  RH WIND       PRES   REMARKS
DENVER INTL AP FAIR      40   5  23 E9        29.88S
DMNS CITY PARK   N/A     41   4  21 E2G12     29.87S
AURORA         MOSUNNY   40   5  23 E7        29.88S
FRONT RANGE AP NOT AVBL
ERIE MUNI ARPT FAIR      41   3  21 E5        29.89S
BOULDER MUN AP FAIR      39   9  28 N7        29.89R
CENTENNIAL     FAIR      39   4  23 E6        29.87S
BROOMFIELD     MOSUNNY   41   3  20 CALM      29.89S
FORT COLLINS   FAIR      39   9  28 E7        29.91S
LONGMONT       FAIR      42   7  23 NE5       29.92R
$$

COZ041-046-047-076>085-087-088-012300-
...PIKES PEAK/PALMER DIVIDE AND SOUTHERN FOOTHILLS...

CITY           SKY/WX    TMP DP  RH WIND       PRES   REMARKS
COLO. SPRINGS  FAIR      37   3  24 S7        29.90R
A. F. ACADEMY  FAIR      37   3  24 S9        29.88R
SCHRIEVER AFB  NOT AVBL
ELLICOTT       FAIR     N/A N/A N/A SE6       29.90R
FALCON         FAIR      35   2  25 S5        29.90R WCI  30
FORT CARSON    FAIR      38   4  23 E7        29.89R
LIMON          PTSUNNY   39   6  25 VRB3      29.92R
MONUMENT HILL  FAIR      32   5  32 CALM      29.89R
TRINIDAD       FAIR      43  10  26 NE8       29.88S
$$

COZ042>045-048>051-090-091-012300-
...NORTHEAST COLORADO...

CITY           SKY/WX    TMP DP  RH WIND       PRES   REMARKS
GREELEY ARPT   FAIR      39   6  25 E3        29.93R
AKRON          FAIR      39   9  29 NW5       29.93R
BURLINGTON     FAIR      43   6  21 SW10      29.94S
WRAY           FAIR      46  10  23 NW14      29.93R
STERLING       FAIR      41  16  36 N6        29.91S
HOLYOKE        FAIR      46  12  25 W13       29.93R
FORT MORGAN    FAIR      41   6  23 CALM      29.93S
$$

COZ086-089-092>099-012300-
...SOUTHEAST COLORADO...

CITY           SKY/WX    TMP DP  RH WIND       PRES   REMARKS
PUEBLO         FAIR      41   9  26 VRB3      29.91S
LA JUNTA       FAIR      42  10  27 CALM      29.93S
LAMAR          FAIR      44   9  23 S5        29.93R
SPRINGFIELD      N/A     42   8  24 CALM      29.92S
$$




USA.gov is the U.S. government's official web portal to all federal, state and local government web resources and services.